[[{"header":{"parameterUnit":"m.s-1","parameterCategory":1,"la1":30.2992,"la2":30.254,"lo1":-89.0895,"lo2":-89.0443,"dy":0.0025,"dx":0.0025,"nx":19,"ny":19,"refTime":"2026-03-21T03:00:00:Z","depth":0,"parameterNumber":2,"parameterNumberName":"U-component_of_WINDS"},"data":[0,0,0,4.9307,4.9312,4.9564,4.9565,4.9896,4.9899,0,0,0,0,0,0,0,0,0,0,0,4.9238,4.924,4.9307,4.9313,4.9564,4.9565,4.9895,4.9899,0,0,0,0,0,0,0,0,0,0,0,4.9236,4.9239,4.9242,4.9314,4.9564,4.9566,4.9895,4.9702,0,0,0,0,0,0,0,0,0,0,4.9456,4.9397,4.9239,4.9242,4.9315,4.9564,4.9566,4.9692,4.9714,4.9785,0,4.985,0,4.9879,4.9921,4.9923,0,0,0,4.931,4.9379,4.9442,4.9243,4.9318,4.9564,4.945,4.9704,4.9728,4.9814,4.9855,4.9867,4.9885,4.9924,4.9925,5.0344,5.0346,0,0,4.9296,4.9286,4.9425,4.9458,4.9419,4.9442,4.9458,4.9719,4.9763,4.9856,4.9874,4.989,4.9926,4.9928,5.0342,5.0345,0,0,0,4.9258,4.9277,4.9333,4.9445,4.9489,4.9449,4.9468,4.9752,4.977,4.9878,4.9894,4.9928,4.9932,5.034,5.0343,5.0435,0,0,0,4.925,4.9255,4.9327,4.9324,4.9484,4.9624,4.9495,4.9752,4.9782,4.9893,4.9928,4.9935,5.0337,5.0341,5.0427,5.048,0,0,0,4.922,4.9251,4.9289,4.9323,4.943,4.962,4.9653,4.9759,4.9793,4.9923,4.9936,5.0336,5.0341,5.0421,5.0469,5.0584,0,0,0,4.9185,4.9371,4.929,4.9504,4.9428,4.9675,4.9652,4.9837,4.996,4.993,5.0338,5.0343,5.0419,5.0463,5.0577,5.0677,5.0719,0,0,4.9414,4.9398,4.9525,4.946,4.9717,4.9637,4.9909,5.0032,5.0055,5.0246,5.0257,5.043,5.0469,5.0583,5.0959,5.0992,0,0,0,4.9594,4.9684,4.9754,4.9869,4.9966,5.0052,5.0134,5.0179,5.0341,5.0151,5.0504,5.0528,5.0595,5.0643,5.0671,5.0728,5.0365,5.0365,5.0364,4.9905,4.992,5.0128,5.0173,5.0285,5.0365,5.0456,5.053,5.0517,5.06,5.0656,5.0883,5.0939,5.096,5.1019,5.0713,5.0713,5.0714,5.0714,5.0239,5.0368,5.034,5.0532,5.0547,5.0709,5.0792,5.0776,5.0928,5.0843,5.0903,5.0806,5.0996,5.1048,5.0721,5.072,5.0719,5.0718,5.0718,5.0442,5.0506,5.0555,5.0719,5.0844,5.0883,5.1029,5.1039,5.1049,5.1109,5.1167,5.1165,5.1162,5.1136,5.1137,5.1138,5.1138,5.1139,5.1139,5.0633,5.0685,5.0806,5.092,5.0992,5.1088,5.1168,5.1239,5.1321,5.1317,5.1317,5.1292,5.1012,5.0939,5.1152,5.1149,5.1148,5.1147,5.1146,5.0962,5.0888,5.1074,5.1146,5.1278,5.1399,5.1408,5.1552,5.1613,5.1683,5.1646,5.1437,5.1422,5.14,5.134,5.1644,5.1643,5.1644,5.1644,5.1131,5.1124,5.1313,5.1427,5.1539,5.1565,5.1772,5.1834,5.1887,5.1925,5.1883,5.1805,5.1782,5.178,5.175,5.1694,5.208,5.2081,5.2081,5.1333,5.1336,5.1511,5.1559,5.1662,5.1749,5.1943,5.2074,5.2119,5.2099,5.1954,5.1936,5.1809,5.1768,5.1744,5.1697,5.1594,0,0]},{"header":{"parameterUnit":"m.s-1","parameterCategory":1,"la1":30.2992,"la2":30.254,"lo1":-89.0895,"lo2":-89.0443,"dy":0.0025,"dx":0.0025,"nx":19,"ny":19,"refTime":"2026-03-21T03:00:00:Z","depth":0,"parameterNumber":3,"parameterNumberName":"V-component_of_WINDS"},"data":[0,0,0,3.2579,3.2581,3.2681,3.2681,3.2817,3.2818,0,0,0,0,0,0,0,0,0,0,0,3.2556,3.2557,3.2578,3.2581,3.2681,3.2681,3.2816,3.2818,0,0,0,0,0,0,0,0,0,0,0,3.2555,3.2556,3.2558,3.2582,3.2681,3.2681,3.2816,3.2738,0,0,0,0,0,0,0,0,0,0,3.2639,3.2625,3.2556,3.2558,3.2582,3.2681,3.2681,3.2734,3.2742,3.2775,0,3.2807,0,3.2815,3.2828,3.2828,0,0,0,3.2576,3.2617,3.2638,3.2558,3.2583,3.2681,3.2634,3.2738,3.2748,3.2787,3.2809,3.2814,3.2817,3.2829,3.2829,3.3037,3.3038,0,0,3.257,3.2577,3.2632,3.2645,3.2632,3.2631,3.2638,3.2744,3.2769,3.281,3.2817,3.2819,3.283,3.2831,3.3036,3.3037,0,0,0,3.2558,3.2573,3.2591,3.264,3.2657,3.2634,3.2642,3.2764,3.2769,3.2818,3.2821,3.283,3.2832,3.3034,3.3036,3.3102,0,0,0,3.2554,3.2566,3.2589,3.2594,3.2656,3.2713,3.2659,3.2762,3.2774,3.282,3.283,3.2834,3.3033,3.3035,3.3098,3.3133,0,0,0,3.2547,3.2565,3.2582,3.2594,3.2638,3.2711,3.2722,3.2764,3.2776,3.2828,3.2834,3.3032,3.3035,3.3094,3.3126,3.3189,0,0,0,3.254,3.264,3.2583,3.2695,3.2637,3.2751,3.2721,3.2806,3.2859,3.2831,3.3033,3.3036,3.3092,3.3122,3.3184,3.3243,3.3268,0,0,3.267,3.2656,3.2721,3.2673,3.2799,3.2735,3.287,3.2913,3.2911,3.2994,3.2999,3.3099,3.3125,3.3188,3.3406,3.3426,0,0,0,3.2764,3.2811,3.2843,3.2894,3.2928,3.296,3.298,3.2995,3.3066,3.2956,3.3139,3.3154,3.319,3.3218,3.3235,3.3265,3.3049,3.3049,3.3049,3.2958,3.295,3.3056,3.306,3.3109,3.3128,3.3167,3.319,3.3169,3.3211,3.3236,3.337,3.3402,3.3415,3.3446,3.3266,3.3267,3.3267,3.3267,3.3146,3.3211,3.3178,3.327,3.326,3.3336,3.3357,3.3338,3.3406,3.3351,3.3382,3.3322,3.3437,3.3464,3.3272,3.3271,3.3271,3.327,3.327,3.3272,3.3302,3.3318,3.3388,3.3443,3.3442,3.3509,3.3498,3.3487,3.3518,3.3542,3.3541,3.3538,3.353,3.3531,3.3531,3.3532,3.3532,3.3532,3.3396,3.3412,3.3471,3.3514,3.3543,3.358,3.3598,3.3626,3.3654,3.364,3.3641,3.3614,3.345,3.3409,3.354,3.3538,3.3537,3.3537,3.3536,3.3591,3.3544,3.3635,3.3664,3.3712,3.3765,3.3749,3.3807,3.3828,3.3861,3.3826,3.3708,3.3693,3.3679,3.3645,3.3829,3.3829,3.3829,3.3829,3.3697,3.3688,3.3776,3.3824,3.3869,3.3862,3.3961,3.3974,3.3981,3.3993,3.3964,3.3918,3.3904,3.3897,3.3879,3.3847,3.4078,3.4078,3.4078,3.3816,3.381,3.3898,3.3904,3.3939,3.3969,3.4061,3.4115,3.4112,3.4088,3.4002,3.3991,3.3916,3.3892,3.3868,3.3839,3.3781,0,0]}]]